TimeEDT,TemperatureF,Dew PointF,Humidity,Sea Level PressureIn,VisibilityMPH,Wind Direction,Wind SpeedMPH,Gust SpeedMPH,PrecipitationIn,Events,Conditions,WindDirDegrees,DateUTC
12:53 AM,68.0,59.0,73,30.07,10.0,SE,3.5,-,N/A,,Partly Cloudy,130,2013-03-18 04:53:00
1:53 AM,68.0,60.1,76,30.06,10.0,SSE,3.5,-,N/A,,Partly Cloudy,150,2013-03-18 05:53:00
2:53 AM,70.0,61.0,73,30.05,10.0,SSE,5.8,-,N/A,,Partly Cloudy,150,2013-03-18 06:53:00
3:53 AM,70.0,62.1,76,30.02,10.0,SSE,8.1,-,N/A,,Partly Cloudy,150,2013-03-18 07:53:00
4:53 AM,71.1,62.1,73,30.04,10.0,SSE,9.2,-,N/A,,Mostly Cloudy,150,2013-03-18 08:53:00
5:53 AM,72.0,62.1,71,30.03,10.0,SSE,10.4,-,N/A,,Scattered Clouds,150,2013-03-18 09:53:00
6:53 AM,72.0,63.0,73,30.05,10.0,SSE,12.7,-,N/A,,Scattered Clouds,150,2013-03-18 10:53:00
7:53 AM,72.0,63.0,73,30.06,10.0,SSE,10.4,-,N/A,,Partly Cloudy,150,2013-03-18 11:53:00
8:53 AM,73.9,63.0,68,30.07,10.0,SSE,13.8,21.9,N/A,,Mostly Cloudy,160,2013-03-18 12:53:00
9:53 AM,75.0,64.0,69,30.07,10.0,SSE,13.8,-,N/A,,Mostly Cloudy,160,2013-03-18 13:53:00
10:53 AM,75.0,64.9,71,30.07,10.0,SSE,18.4,25.3,N/A,,Partly Cloudy,150,2013-03-18 14:53:00
11:53 AM,78.1,66.0,66,30.06,10.0,South,15.0,23.0,N/A,,Scattered Clouds,170,2013-03-18 15:53:00
12:44 PM,77.0,66.2,69,30.05,10.0,SSE,15.0,20.7,N/A,,Mostly Cloudy,150,2013-03-18 16:44:00
12:53 PM,78.1,66.0,66,30.04,9.0,SE,19.6,26.5,N/A,,Mostly Cloudy,140,2013-03-18 16:53:00
1:53 PM,79.0,66.0,64,30.02,10.0,South,16.1,24.2,N/A,,Overcast,170,2013-03-18 17:53:00
2:05 PM,78.8,66.2,65,30.01,10.0,SSE,15.0,25.3,N/A,,Mostly Cloudy,150,2013-03-18 18:05:00
2:53 PM,78.1,66.9,68,29.99,10.0,SSE,15.0,-,N/A,,Mostly Cloudy,150,2013-03-18 18:53:00
3:04 PM,80.6,68.0,65,29.98,10.0,SSE,16.1,-,N/A,,Mostly Cloudy,150,2013-03-18 19:04:00
3:11 PM,78.8,68.0,69,29.98,10.0,SE,16.1,23.0,N/A,,Mostly Cloudy,140,2013-03-18 19:11:00
3:53 PM,77.0,68.0,74,29.98,10.0,SE,17.3,-,N/A,,Mostly Cloudy,140,2013-03-18 19:53:00
4:30 PM,78.8,68.0,69,29.98,10.0,South,12.7,18.4,N/A,,Mostly Cloudy,180,2013-03-18 20:30:00
4:53 PM,77.0,66.9,71,29.99,10.0,SSW,10.4,-,N/A,,Overcast,200,2013-03-18 20:53:00
4:59 PM,77.0,66.2,69,29.99,10.0,SSW,10.4,-,N/A,,Overcast,200,2013-03-18 20:59:00
5:53 PM,73.9,69.1,85,29.99,7.0,South,5.8,-,0.00,Rain,Light Rain,190,2013-03-18 21:53:00
6:53 PM,73.9,70.0,87,30.00,8.0,South,4.6,-,0.02,Rain,Light Rain,190,2013-03-18 22:53:00
7:53 PM,73.0,69.1,87,30.00,10.0,Calm,Calm,-,0.01,Rain,Light Rain,0,2013-03-18 23:53:00
8:53 PM,73.0,70.0,90,30.00,9.0,Calm,Calm,-,0.00,,Overcast,0,2013-03-19 00:53:00
9:28 PM,71.6,68.0,88,30.00,10.0,North,9.2,-,N/A,,Overcast,350,2013-03-19 01:28:00
9:49 PM,69.8,66.2,88,30.00,10.0,North,4.6,-,N/A,,Mostly Cloudy,360,2013-03-19 01:49:00
9:53 PM,70.0,66.9,90,30.00,10.0,North,4.6,-,N/A,,Mostly Cloudy,360,2013-03-19 01:53:00
10:03 PM,69.8,66.2,88,30.00,10.0,North,4.6,-,N/A,,Mostly Cloudy,10,2013-03-19 02:03:00
10:53 PM,70.0,66.9,90,30.01,10.0,North,3.5,-,0.00,,Overcast,360,2013-03-19 02:53:00
11:53 PM,70.0,66.9,90,29.99,9.0,SSW,3.5,-,0.01,Rain,Light Rain,200,2013-03-19 03:53:00